This demonstration page uses our WeatherBlox Daily Observations layout. Learn more.

Left ArrowRight Arrow

34.02893, -84.19858

Hourly Observations for November 24, 2019

Temp ( °F °C ) Dew Point ( °F °C ) Humidity (%) Winds ( mph kmh ) Pressure ( in mb ) Visibility ( mi km ) Precip ( " mm )
12:53 am 00:53 Cloudy 44 6.7 37 2.8 76 76 WNW 12 19 29.86 1011 10 16 0.00 0.00
1:53 am 01:53 Mostly Cloudy 44 6.7 37 2.8 76 76 WNW 9 15 29.85 1011 10 16 0.00 0.00
2:31 am 02:31 Cloudy 44 6.7 37 2.8 76 76 WNW 10 17 29.87 1012 10 16 0.00 0.00
2:53 am 02:53 Cloudy 44 6.7 37 2.8 76 76 NW 13 20 29.85 1011 10 16 0.00 0.00
3:53 am 03:53 Cloudy 44 6.7 38 3.3 79 79 NW 16 26 29.85 1011 10 16 0.00 0.00
4:29 am 04:29 Partly Cloudy 43 6.1 37 2.8 80 80 NW 13 20 29.88 1012 10 16 0.00 0.00
4:53 am 04:53 Mostly Cloudy 43 6.1 37 2.8 80 80 NW 14 22 29.86 1011 10 16 0.00 0.00
5:17 am 05:17 Partly Cloudy 42 5.6 36 2.2 79 79 NW 10 17 29.88 1012 10 16 0.00 0.00
5:53 am 05:53 Clear 42 5.6 34 1.1 73 73 NW 15 24 29.87 1011 10 16 0.00 0.00
6:21 am 06:21 Mostly Cloudy 42 5.6 34 1.1 73 73 NW 14 22 29.89 1012 10 16 0.00 0.00
6:53 am 06:53 Cloudy 42 5.6 34 1.1 73 73 WNW 17 28 29.89 1012 10 16 0.00 0.00
7:53 am 07:53 Cloudy 42 5.6 34 1.1 73 73 NW 16 26 29.92 1013 10 16 0.00 0.00
8:53 am 08:53 Cloudy 42 5.6 34 1.1 73 73 NW 15 24 29.94 1014 10 16 0.00 0.00
9:53 am 09:53 Mostly Cloudy 44 6.7 34 1.1 68 68 NW 12 19 29.94 1014 10 16 0.00 0.00
10:00 am 10:00 Partly Cloudy 45 7.2 35 1.7 68 68 WNW 15 24 29.95 1014 10 16 0.00 0.00
10:53 am 10:53 Sunny 47 8.3 35 1.7 63 63 NW 13 20 29.95 1014 10 16 0.00 0.00
11:53 am 11:53 Sunny 50 10 36 2.2 59 59 WNW 6 9 29.92 1013 10 16 0.00 0.00
12:53 pm 12:53 Sunny 52 11.1 36 2.2 55 55 WNW 13 20 29.90 1012 10 16 0.00 0.00
1:53 pm 13:53 Sunny 52 11.1 37 2.8 57 57 WNW 8 13 29.88 1012 10 16 0.00 0.00
2:53 pm 14:53 Sunny 52 11.1 37 2.8 57 57 WNW 7 11 29.87 1012 10 16 0.00 0.00
3:53 pm 15:53 Sunny 52 11.1 37 2.8 57 57 WNW 8 13 29.88 1012 10 16 0.00 0.00
4:53 pm 16:53 Sunny 50 10 37 2.8 61 61 WNW 12 19 29.89 1012 10 16 0.00 0.00
5:53 pm 17:53 Clear 47 8.3 37 2.8 69 69 WNW 7 11 29.90 1013 10 16 0.00 0.00
6:53 pm 18:53 Clear 45 7.2 37 2.8 74 74 WNW 7 11 29.91 1013 10 16 0.00 0.00
7:53 pm 19:53 Clear 44 6.7 36 2.2 73 73 W 3 6 29.91 1013 10 16 0.00 0.00
8:53 pm 20:53 Clear 42 5.6 36 2.2 79 79 W 5 7 29.91 1013 10 16 0.00 0.00
9:53 pm 21:53 Clear 41 5 36 2.2 82 82 W 3 6 29.92 1013 10 16 0.00 0.00
10:53 pm 22:53 Clear 38 3.3 35 1.7 89 89 Calm 29.93 1014 10 16 0.00 0.00
11:53 pm 23:53 Clear 37 2.8 35 1.7 93 93 Calm 29.92 1013 10 16 0.00 0.00

Powered by AerisWeather